Oelwein, IA

12:20 PM CST on November 21, 2017 (GMT -0600)
Oelwein Municipal

Weather History for KOLZ - December, 2012

Change the Weather History Date:

Monday, December 31, 2012

  Actual Average Record
Temperature  
Mean Temperature 16 °F -  
Max Temperature 30 °F 25 °F 57 °F (1965)
Min Temperature 3 °F 9 °F -21 °F (1976)
Degree Days  
Heating Degree Days 48    
Moisture  
Dew Point 10 °F    
Average Humidity 77    
Maximum Humidity 86    
Minimum Humidity 67    
Precipitation  
Precipitation 0.00 in - - ()
Sea Level Pressure  
Sea Level Pressure 30.10 in    
Wind  
Wind Speed 10 mph (NW)    
Max Wind Speed 18 mph    
Max Gust Speed 23 mph    
Visibility 10 miles    
Events      
Averages and records for this station are not official NWS values.
T = Trace of Precipitation, MM = Missing Value Source: NWS Daily Summary

Daily Weather History Graph

Daily Weather History Graph

Search for Another Location

Airport or City:

Trip Planner

Search our weather history database for the weather conditions in past years. The results will help you decide how hot, cold, wet, or windy it might be!

Date:

Astronomy

Dec. 31, 2012 Rise Set
Actual Time 7:38 AM CST 4:44 PM CST
Civil Twilight 7:06 AM CST 5:16 PM CST
Nautical Twilight 6:30 AM CST 5:51 PM CST
Astronomical Twilight 5:56 AM CST 6:26 PM CST
Moon 8:20 PM CST (12/31) 9:15 AM CST (12/31)
Length of Visible Light 10h 10m
Length of Day
9h 06m
Waning Gibbous, 90% of the Moon is Illuminated
Dec 31
Waning Gibbous
Jan 4
Last Quarter
Jan 11
New
Jan 18
First Quarter
Jan 26
Full

Hourly Weather History & Observations

Time (CST) Temp. Windchill Dew Point Humidity Pressure Visibility Wind Dir Wind Speed Gust Speed Precip Events Conditions
12:15 AM 30.2 °F 21.9 °F 23.0 °F 75% 29.97 in 10.0 mi West 9.2 mph - N/A   Clear
12:35 AM 28.4 °F 18.5 °F 23.0 °F 80% 29.97 in 10.0 mi West 11.5 mph - N/A   Clear
12:55 AM 28.4 °F 21.2 °F 21.2 °F 74% 29.97 in 10.0 mi West 6.9 mph - N/A   Clear
1:15 AM 26.6 °F 18.2 °F 21.2 °F 80% 29.97 in 10.0 mi West 8.1 mph - N/A   Clear
1:35 AM 26.6 °F 17.5 °F 21.2 °F 80% 29.98 in 10.0 mi West 9.2 mph - N/A   Clear
1:55 AM 24.8 °F 16.1 °F 19.4 °F 80% 29.99 in 10.0 mi West 8.1 mph - N/A   Clear
2:15 AM 23.0 °F 13.9 °F 19.4 °F 86% 30.00 in 10.0 mi West 8.1 mph - N/A   Clear
2:35 AM 23.0 °F 13.1 °F 19.4 °F 86% 30.01 in 10.0 mi West 9.2 mph - N/A   Clear
2:55 AM 23.0 °F 13.1 °F 17.6 °F 80% 30.03 in 10.0 mi West 9.2 mph - N/A   Clear
3:15 AM 21.2 °F 10.1 °F 17.6 °F 86% 30.04 in 10.0 mi West 10.4 mph - N/A   Clear
3:35 AM 21.2 °F 10.9 °F 15.8 °F 80% 30.04 in 10.0 mi West 9.2 mph - N/A   Clear
3:55 AM 21.2 °F 10.9 °F 14.0 °F 74% 30.04 in 10.0 mi West 9.2 mph - N/A   Clear
4:15 AM 19.4 °F 8.6 °F 14.0 °F 80% 30.04 in 10.0 mi West 9.2 mph - N/A   Clear
4:35 AM 17.6 °F 5.7 °F 12.2 °F 79% 30.05 in 10.0 mi WNW 10.4 mph - N/A   Clear
4:55 AM 17.6 °F 5.0 °F 12.2 °F 79% 30.05 in 10.0 mi WNW 11.5 mph - N/A   Clear
5:15 AM 15.8 °F 3.4 °F 12.2 °F 86% 30.06 in 10.0 mi WNW 10.4 mph - N/A   Clear
5:35 AM 15.8 °F 3.4 °F 12.2 °F 86% 30.07 in 10.0 mi NW 10.4 mph - N/A   Clear
5:55 AM 15.8 °F 2.7 °F 12.2 °F 86% 30.07 in 10.0 mi NW 11.5 mph - N/A   Clear
6:15 AM 15.8 °F 2.7 °F 12.2 °F 86% 30.08 in 10.0 mi NW 11.5 mph - N/A   Clear
6:35 AM 15.8 °F 2.1 °F 10.4 °F 79% 30.07 in 10.0 mi NW 12.7 mph - N/A   Clear
6:55 AM 14.0 °F 0.5 °F 10.4 °F 86% 30.08 in 10.0 mi NW 11.5 mph - N/A   Clear
7:15 AM 14.0 °F 0.5 °F 10.4 °F 86% 30.08 in 10.0 mi NW 11.5 mph - N/A   Clear
7:35 AM 14.0 °F 1.2 °F 10.4 °F 86% 30.07 in 10.0 mi NW 10.4 mph - N/A   Clear
7:55 AM 15.8 °F 2.1 °F 12.2 °F 86% 30.07 in 10.0 mi NW 12.7 mph 17.3 mph N/A   Clear
8:15 AM 15.8 °F 2.1 °F 12.2 °F 86% 30.09 in 10.0 mi NW 12.7 mph - N/A   Clear
8:35 AM 15.8 °F 2.1 °F 10.4 °F 79% 30.09 in 10.0 mi NW 12.7 mph - N/A   Clear
8:55 AM 17.6 °F 4.3 °F 10.4 °F 73% 30.10 in 10.0 mi NW 12.7 mph 20.7 mph N/A   Clear
9:15 AM 15.8 °F 0.9 °F 10.4 °F 79% 30.11 in 10.0 mi NNW 15.0 mph 23.0 mph N/A   Scattered Clouds
9:35 AM 15.8 °F 2.7 °F 10.4 °F 79% 30.11 in 10.0 mi NNW 11.5 mph 18.4 mph N/A   Scattered Clouds
9:55 AM 17.6 °F 4.3 °F 10.4 °F 73% 30.12 in 10.0 mi NW 12.7 mph - N/A   Mostly Cloudy
10:15 AM 17.6 °F 5.7 °F 10.4 °F 73% 30.12 in 10.0 mi NNW 10.4 mph 17.3 mph N/A   Scattered Clouds
10:35 AM 17.6 °F 3.7 °F 10.4 °F 73% 30.12 in 10.0 mi NNW 13.8 mph - N/A   Scattered Clouds
10:55 AM 17.6 °F 3.7 °F 12.2 °F 79% 30.12 in 10.0 mi NW 13.8 mph 19.6 mph N/A   Mostly Cloudy
11:15 AM 17.6 °F 1.7 °F 10.4 °F 73% 30.12 in 10.0 mi NNW 18.4 mph 23.0 mph N/A   Scattered Clouds
11:35 AM 17.6 °F 2.2 °F 10.4 °F 73% 30.12 in 10.0 mi NNW 17.3 mph 23.0 mph N/A   Clear
11:55 AM 17.6 °F 2.2 °F 10.4 °F 73% 30.12 in 10.0 mi NNW 17.3 mph 20.7 mph N/A   Clear
12:15 PM 17.6 °F 2.2 °F 10.4 °F 73% 30.11 in 10.0 mi NNW 17.3 mph - N/A   Clear
12:35 PM 17.6 °F 3.7 °F 10.4 °F 73% 30.11 in 10.0 mi NNW 13.8 mph - N/A   Clear
12:55 PM 17.6 °F 3.7 °F 10.4 °F 73% 30.12 in 10.0 mi NNW 13.8 mph - N/A   Clear
1:15 PM 17.6 °F 5.7 °F 10.4 °F 73% 30.11 in 10.0 mi NNW 10.4 mph - N/A   Clear
1:35 PM 17.6 °F 5.0 °F 10.4 °F 73% 30.10 in 10.0 mi NW 11.5 mph - N/A   Clear
1:55 PM 17.6 °F 5.0 °F 8.6 °F 68% 30.11 in 10.0 mi NW 11.5 mph 17.3 mph N/A   Clear
2:15 PM 17.6 °F 5.7 °F 10.4 °F 73% 30.11 in 10.0 mi NW 10.4 mph - N/A   Clear
2:35 PM 19.4 °F 6.0 °F 10.4 °F 68% 30.11 in 10.0 mi NW 13.8 mph - N/A   Clear
2:55 PM 17.6 °F 6.4 °F 8.6 °F 68% 30.11 in 10.0 mi NW 9.2 mph - N/A   Clear
3:15 PM 17.6 °F 6.4 °F 10.4 °F 73% 30.11 in 10.0 mi NW 9.2 mph - N/A   Clear
3:35 PM 17.6 °F 5.7 °F 8.6 °F 68% 30.11 in 10.0 mi NW 10.4 mph - N/A   Clear
3:55 PM 17.6 °F 12.3 °F 10.4 °F 73% 30.10 in 10.0 mi NNW 3.5 mph - N/A   Clear
4:15 PM 15.8 °F 6.1 °F 8.6 °F 73% 30.10 in 10.0 mi NNW 6.9 mph - N/A   Clear
4:35 PM 15.8 °F 5.1 °F 8.6 °F 73% 30.10 in 10.0 mi NNW 8.1 mph - N/A   Clear
5:15 PM 15.8 °F 4.2 °F 8.6 °F 73% 30.12 in 10.0 mi NNW 9.2 mph - N/A   Clear
5:35 PM 14.0 °F 1.2 °F 6.8 °F 73% 30.12 in 10.0 mi NNW 10.4 mph - N/A   Clear
6:15 PM 14.0 °F 1.2 °F 6.8 °F 73% 30.13 in 10.0 mi NNW 10.4 mph - N/A   Clear
6:35 PM 14.0 °F 0.5 °F 5.0 °F 67% 30.13 in 10.0 mi NNW 11.5 mph 16.1 mph N/A   Clear
7:15 PM 12.2 °F -1.8 °F 5.0 °F 73% 30.14 in 10.0 mi NNW 11.5 mph 16.1 mph N/A   Clear
7:35 PM 12.2 °F -0.2 °F 5.0 °F 73% 30.15 in 10.0 mi NNW 9.2 mph - N/A   Clear
8:15 PM 12.2 °F 1.7 °F 5.0 °F 73% 30.16 in 10.0 mi NNW 6.9 mph - N/A   Clear
8:35 PM 12.2 °F 1.7 °F 5.0 °F 73% 30.16 in 10.0 mi NNW 6.9 mph - N/A   Clear
8:55 PM 10.4 °F -1.5 °F 3.2 °F 73% 30.17 in 10.0 mi NNW 8.1 mph - N/A   Clear
9:15 PM 10.4 °F 0.8 °F 3.2 °F 73% 30.17 in 10.0 mi NNW 5.8 mph - N/A   Clear
9:35 PM 8.6 °F - 3.2 °F 79% 30.18 in 10.0 mi Calm Calm - N/A   Clear
9:55 PM 8.6 °F - 1.4 °F 73% 30.18 in 10.0 mi Calm Calm - N/A   Clear
10:15 PM 5.0 °F - -0.4 °F 78% 30.18 in 10.0 mi Calm Calm - N/A   Clear
10:35 PM 5.0 °F - -0.4 °F 78% 30.20 in 10.0 mi Calm Calm - N/A   Clear
10:55 PM 5.0 °F - -0.4 °F 78% 30.20 in 10.0 mi Calm Calm - N/A   Clear
11:15 PM 3.2 °F - -2.2 °F 78% 30.21 in 10.0 mi Calm Calm - N/A   Clear
11:35 PM 3.2 °F - -2.2 °F 78% 30.21 in 10.0 mi Calm Calm - N/A   Clear